Tracking 17784 objects as of 24-July-2016
HD Live streaming from Space Station
objects crossing your sky now

BREEZE-M DEB (TANK)

Track BREEZE-M DEB (TANK) now!


NORAD ID: 32374
Int'l Code: 2007-058B
Perigee: 489.7 km
Apogee: 34,555.7 km
Inclination: 46.4 °
Period: 612.6 minutes
Semi major axis: 23893 km
RCS: 5.0489 m2 (large)
Launch date: December 9, 2007
Source: Commonwealth of Independent States (former USSR) (CIS)
Launch site: TYURATAM MISSILE AND SPACE COMPLEX (TTMTR)

Note: This is SATELLITE DEBRIS
Your satellite tracking list
Your tracking list is empty





NASA's NSSDC Master Catalog

Two Line Element Set (TLE):
1 32374U 07058B   16205.58289430 -.00000106  00000-0  28750-4 0  9996
2 32374  46.4413 278.1574 7128650 169.8879 221.3923  2.35059407 73067
Source of the keplerian elements: AFSPC

N2YO: 902